Regional Weather Roundup
Issued by NWS

Home | Current Version | Previous Version | Graphics & Text | Print | Product List | Glossary On
Versions: 1 2 3 4 5 6 7 8 9 10 11 12 13 14 15 16 17 18 19 20 21 22 23 24 25 26 27 28 29 30 31 32 33 34 35 36 37 38 39 40 41 42 43 44 45 46 47 48 49 50
000
ASUS43 KLOT 241809
RWRIL

ILLINOIS REGIONAL WEATHER ROUNDUP
NATIONAL WEATHER SERVICE CHICAGO/ROMEOVILLE IL
100 PM CDT WED MAY 24 2017

NOTE: "FAIR" INDICATES FEW OR NO CLOUDS BELOW 12,000 FEET WITH NO
SIGNIFICANT WEATHER AND/OR OBSTRUCTIONS TO VISIBILITY.

* THESE STATIONS ARE NOT UNDER NWS QUALITY CONTROL. THEY ALSO MAY NOT
  REPORT WEATHER SUCH AS PRECIPITATION OR FOG.

ILZ001-002-007-009-015-016-024-241900-
NORTHWEST ILLINOIS

CITY           SKY/WX    TMP DP  RH WIND       PRES   REMARKS
MOLINE         CLOUDY    61  48  62 N7        29.60S
6HR MIN TEMP:  52; 6HR MAX TEMP:  63;

STERLING*      CLOUDY    56  53  90 N8        29.61S
SAVANNA*       CLOUDY    57  53  86 N12       29.62F
$$

ILZ003-004-008-010-011-017-018-241900-
NORTH CENTRAL ILLINOIS

CITY           SKY/WX    TMP DP  RH WIND       PRES   REMARKS
ROCKFORD       CLOUDY    58  54  86 N14       29.61R
6HR MIN TEMP:  53; 6HR MAX TEMP:  59; 6HR PCP:  0.01;

FREEPORT*      CLOUDY    55  53  91 N9        29.63F
ROCHELLE*      CLOUDY    57  53  88 N12       29.60R
DE KALB*       CLOUDY    58  53  84 NE14      29.59R
PERU*          CLOUDY    57  53  85 N10       29.58S
$$

ILZ005-006-012>014-019>023-241900-
NORTHEAST ILLINOIS

CITY           SKY/WX    TMP DP  RH WIND       PRES   REMARKS
CHICAGO-OHARE  CLOUDY    59  50  72 NE17      29.56S
6HR MIN TEMP:  54; 6HR MAX TEMP:  59; 6HR PCP: TRACE;

CHICAGO-MIDWAY CLOUDY    59  52  77 N14       29.55R
6HR MIN TEMP:  55; 6HR MAX TEMP:  59; 6HR PCP: TRACE;

AURORA         CLOUDY    60  53  77 N17G24    29.57S
6HR MIN TEMP:  55; 6HR MAX TEMP:  61;

LANSING*       CLOUDY    56  53  91 N8        29.55S
JOLIET*        CLOUDY    60  54  82 N10       29.55F
WAUKEGAN       CLOUDY    57  51  80 N10G23    29.57F
6HR MIN TEMP:  51; 6HR MAX TEMP:  57; 6HR PCP:  0.02;

DUPAGE AIRPORT CLOUDY    60  54  80 N15       29.55F
6HR MIN TEMP:  53; 6HR MAX TEMP:  60;

KANKAKEE*      CLOUDY    61  54  77 N8        29.53F
WHEELING       CLOUDY    57  51  80 NE16G25   29.58S
6HR MIN TEMP:  53; 6HR MAX TEMP:  58; 6HR PCP: TRACE;

MORRIS*        CLOUDY    60  54  79 N3        29.54F
ROMEOVILLE*    CLOUDY    58  55  89 NE15      29.55F
NORTHERLY ISL    N/A     54  50  86 MISG        N/A
$$

LMZ740>746-241900-
SOUTHERN LAKE MICHIGAN

STATION/POSITION SKY/WX   TEMP    WIND        PRES    VSBY  WAVE
                          AIR SEA DIR/SP/G                  HT/PER
                          (F)     (DEG/KT/KT) (MB)    (MI)  (FT/S)
SOUTHERN BUOY              49 45   20/ 17/ 19 1001.3          2/ 4
WILMETTE HARBOR            49 52                N/A           4/ 4
HARRISON CRIB              52     360/ 20/ 22   N/A
BURNHAM HARBOR             54     350/ 14/ 16   N/A
CALUMET HARBOR             54     350/  9/ 15 1000.4S
BURNS HARBOR               53      30/  9/ 11 1000.7F
MICHIGAN CITY              53     360/ 11/ 12   N/A
MICHIGAN CITY 6N           52 54   20/ 12/ 16   N/A           3/ 4
ST. JOSEPH                 55 57   30/ 14/ 17  999.7          3/ 4
$$

ILZ025>027-034>036-040-047-049-050-058-095>099-241900-
WEST-CENTRAL ILLINOIS

CITY           SKY/WX    TMP DP  RH WIND       PRES   REMARKS
QUINCY         HVY RAIN  57  50  77 NW10      29.60S
GALESBURG*     CLOUDY    61  53  74 N15       29.58F
MACOMB*        RAIN      57  54  88 N16       29.61S
JACKSONVILLE*  CLOUDY    61  51  69 NW6       29.57S
PITTSFIELD*    CLOUDY    63  51  65 NW10      29.60S
$$

ILZ028>032-037-038-041>044-048-051>054-059>061-241900-
CENTRAL ILLINOIS

CITY           SKY/WX    TMP DP  RH WIND       PRES   REMARKS
PONTIAC        CLOUDY    60  58  91 N10       29.55F
BLOOMINGTON    CLOUDY    61  54  77 N14       29.55F
DECATUR        PTSUNNY   64  53  67 N15       29.53F
PEORIA         CLOUDY    64  55  72 NE10G16   29.56F
6HR MIN TEMP:  51; 6HR MAX TEMP:  65;

LACON*         CLOUDY    58  54  86 N8        29.57S
LINCOLN*       PTSUNNY   66  53  61 N10       29.54F
SPRINGFIELD    MOSUNNY   66  55  67 N12G17    29.55F
6HR MIN TEMP:  53; 6HR MAX TEMP:  66;

TAYLORVILLE    MOSUNNY   63  54  71 NW9G18    29.55S
6HR MIN TEMP:  52; 6HR MAX TEMP:  63;

$$

ILZ033-039-045-046-055>057-062-063-241900-
EAST-CENTRAL ILLINOIS

CITY           SKY/WX    TMP DP  RH WIND       PRES   REMARKS
CHAMPAIGN      LGT RAIN  60  58  92 NW13      29.52F
RANTOUL*       DRIZZLE   61  58  92 N10       29.52F
MATTOON        LGT RAIN  58  57  97 NW14      29.52S
PARIS*         RAIN      58  57  97 N9        29.51S
$$

ILZ079-100>102-241900-
SOUTHWEST ILLINOIS

CITY           SKY/WX    TMP DP  RH WIND       PRES   REMARKS
ALTON          PTSUNNY   63  48  59 NW12      29.56F
BELLEVILLE     MOSUNNY   65  51  59 NW13      29.57S
CAHOKIA*       CLOUDY    65  47  52 NW12      29.57S
SPARTA*        PTSUNNY   63  47  57 NW12      29.56F
$$

ILZ064>066-069>071-074>076-080>082-084>086-088>090-092>094-241900-
SOUTH-CENTRAL ILLINOIS

CITY           SKY/WX    TMP DP  RH WIND       PRES   REMARKS
CARBONDALE     PTSUNNY   65  49  56 NW15G22   29.54S
6HR MIN TEMP:  57; 6HR MAX TEMP:  66;

CAIRO*         CLOUDY    67  49  51 W12G17    29.54S
EFFINGHAM*     LGT RAIN  60  55  82 NW13      29.54F
MARION         PTSUNNY   64  50  59 N12       29.54F
MT. VERNON       N/A     62  52  69 VRB5      29.54S
CENTRALIA*     CLOUDY    64  53  69 N13       29.53S
SALEM*         CLOUDY    63  53  70 N10       29.54F
METROPOLIS*    CLOUDY    64  53  66 NW9       29.54S
$$

ILZ067-068-072-073-078-083-087-091-241900-
SOUTHEAST ILLINOIS

CITY           SKY/WX    TMP DP  RH WIND       PRES   REMARKS
LAWRENCEVILLE  RAIN      59  50  72 N10       29.49S
FLORA*         CLOUDY    63  54  73 NW8       29.53S
FAIRFIELD*     CLOUDY    61  53  74 NW3       29.51F
HARRISBURG*    CLOUDY    62  54  73 N8        29.53S
ROBINSON*      HVY RAIN  57  56  97 NW8       29.50F
CARMI*         LGT RAIN  58  56  92 NW9       29.51S
$$

ABBREVIATIONS USED IN REMARKS
   TC - TEMPERATURE IN CELSIUS
  WCI - WIND CHILL INDEX
   HX - HEAT INDEX
  VSB - VISIBILITY
$$




USA.gov is the U.S. government's official web portal to all federal, state and local government web resources and services.